Flag for Spain Weather past 2 weeks in Alicante, Spain

Now
66 °F

Passing clouds.


Feels Like: 66 °F
Forecast: 68 / 81 °F
Wind: 6 mph from Southwest

Location: Alicante / El Altet

Current Time: Sep 23, 2014 at 3:09:48 AM

Latest Report: Sep 23, 2014 at 2:30 AM


Visibility: N/A

Pressure: 29.92 "Hg

Humidity: 88%

Dew point: 63 °F

Location of AlicanteLocation

Historic Weather in Alicante — Graph

°F

Alicante temperature yesterday

Maximum temperature yesterday: 81 °F (at 3:30 PM)
Minimum temperature yesterday: 68 °F (at 11:00 PM)
Average temperature yesterday: 75 °F

Past Weeks' High & Low Weather Summary

 TemperatureHumidityPressure
High95 °F (Sep 11, 2:00 PM)94% (Sep 17, 2:00 AM)30.07 "Hg (Sep 17, 2:00 AM)
Low66 °F (Sep 17, 7:00 AM)20% (Sep 11, 2:00 PM)29.71 "Hg (Sep 17, 6:30 PM)
Average79 °F63%29.90 "Hg
* Reported Sep 8 2:00 AM — Sep 23 2:00 AM, Alicante, Weather by CustomWeather, © 2014

Note: Actual official high and low records may vary slightly from our data, if they occured in-between our weather recording intervals... More about our weather records

Advertising

Alicante weather history for previous 24 hours

 ConditionsComfort  
Time TempWeatherWind HumidityBarometerVisibility
2:00 AM
Sep 23
66 °FPassing clouds.7 mph88%29.92 "HgN/A
1:30 AM66 °FPassing clouds.9 mph94%29.92 "HgN/A
1:00 AM66 °FThundershowers. Passing clouds.8 mph94%29.95 "HgN/A
12:30 AM66 °FThundershowers. Passing clouds.2 mph94%29.95 "HgN/A
12:00 AM66 °FThunderstorms. Partly cloudy.9 mph88%29.98 "HgN/A
11:30 PM
Sep 22
68 °FThunderstorms. Partly cloudy.3 mph83%29.95 "HgN/A
11:00 PM68 °FThunderstorms. Partly cloudy.18 mph78%29.95 "HgN/A
10:30 PM72 °FThunderstorms. Partly cloudy.9 mph69%29.95 "HgN/A
10:00 PM73 °FThunderstorms. Partly cloudy.2 mph83%29.95 "HgN/A
9:30 PM73 °FThunderstorms. Passing clouds.No wind83%29.95 "HgN/A
9:00 PM73 °FThunderstorms. Passing clouds.1 mph83%29.95 "HgN/A
8:30 PM73 °FThunderstorms. Partly sunny.8 mph83%29.95 "HgN/A
8:00 PM75 °FThundershowers. Partly sunny.9 mph74%29.95 "HgN/A
7:30 PM75 °FPartly sunny.9 mph74%29.95 "HgN/A
7:00 PM75 °FPartly sunny.9 mph74%29.92 "HgN/A
6:30 PM75 °FPartly sunny.14 mph74%29.92 "HgN/A
6:00 PM75 °FScattered clouds.9 mph74%29.92 "HgN/A
5:30 PM75 °FScattered clouds.10 mph74%29.92 "HgN/A
5:00 PM77 °FPassing clouds.9 mph65%29.92 "HgN/A
4:30 PM77 °FPassing clouds.8 mph69%29.92 "HgN/A
4:00 PM79 °FPassing clouds.5 mph65%29.92 "HgN/A
3:30 PM81 °FPassing clouds.1 mph58%29.92 "HgN/A
3:00 PM79 °FPassing clouds.No wind70%29.92 "HgN/A
2:30 PM75 °FPassing clouds.2 mph78%29.95 "HgN/A
2:00 PM73 °FLight rain. Scattered clouds.2 mph83%29.95 "Hg3 mi
1:30 PM72 °FLight rain. Scattered clouds.1 mph88%29.95 "Hg3 mi
1:00 PM72 °FLight rain. Scattered clouds.1 mph88%29.98 "Hg4 mi
12:30 PM73 °FLight rain. Passing clouds.3 mph78%29.98 "Hg6 mi
12:00 PM73 °FPassing clouds.8 mph74%29.95 "HgN/A
11:30 AM75 °FPassing clouds.6 mph69%29.95 "HgN/A
11:00 AM75 °FPassing clouds.8 mph74%29.95 "HgN/A
10:30 AM75 °FPassing clouds.8 mph74%29.95 "HgN/A
10:00 AM73 °FPassing clouds.7 mph78%29.95 "HgN/A
9:30 AM75 °FScattered clouds.7 mph69%29.92 "HgN/A
9:00 AM75 °FScattered clouds.7 mph74%29.95 "HgN/A
8:30 AM75 °FPassing clouds.3 mph74%29.95 "HgN/A
8:00 AM75 °FPassing clouds.3 mph74%29.92 "HgN/A
7:30 AM75 °FPassing clouds.8 mph74%29.92 "HgN/A
7:00 AM75 °FPassing clouds.3 mph78%29.92 "HgN/A
6:30 AM75 °FPassing clouds.7 mph78%29.92 "HgN/A
6:00 AM75 °FPassing clouds.3 mph78%29.92 "HgN/A
5:30 AM75 °FPassing clouds.2 mph78%29.92 "HgN/A
5:00 AM75 °FPassing clouds.2 mph78%29.92 "HgN/A
4:30 AM75 °FPassing clouds.2 mph78%29.92 "HgN/A
4:00 AM75 °FPassing clouds.2 mph78%29.92 "HgN/A
3:30 AM77 °FPassing clouds.2 mph74%29.95 "HgN/A
3:00 AM77 °FPassing clouds.3 mph74%29.95 "HgN/A
Weather by CustomWeather, © 2014

See weather overviewHow to use our weather pages